Location: Ostrava
(49.8330°N, 18.2830°E)
Time: 15:11:50
(UTC+02:00)

Lacrosse 5 - Visible Passes

Search period start: 07 July 2015 00:00
Search period end: 17 July 2015 00:00
Orbit: 713 x 724 km, 57.0° (Epoch: 30 June)

Date Brightness Start Highest point End Pass type
(mag) Time Alt. Az. Time Alt. Az. Time Alt. Az.
07 Jul 3.8 00:14:49 14° ESE 00:14:49 14° ESE 00:17:04 10° E visible
07 Jul 1.9 01:53:58 27° SSW 01:56:39 62° SE 02:01:39 10° ENE visible
07 Jul 2.7 03:34:54 10° W 03:39:47 48° NNW 03:44:43 10° NE visible
08 Jul 2.4 01:02:03 32° SSE 01:03:24 38° SE 01:08:05 10° ENE visible
08 Jul 2.2 02:41:13 10° WSW 02:46:14 63° NNW 02:51:17 10° NE visible
09 Jul 3.0 00:10:03 23° SE 00:10:16 23° SE 00:14:16 10° ENE visible
09 Jul 1.8 01:49:11 20° SW 01:52:45 89° NW 01:57:51 10° ENE visible
09 Jul 3.1 03:31:24 10° W 03:36:11 40° NNW 03:40:59 10° ENE visible
09 Jul 3.7 23:17:57 13° ESE 23:17:57 13° ESE 23:19:44 10° E visible
10 Jul 1.9 00:57:05 30° SSW 00:59:24 61° SE 01:04:24 10° ENE visible
10 Jul 2.7 02:37:38 10° W 02:42:32 49° NNW 02:47:28 10° NE visible
11 Jul 2.4 00:04:49 32° SSE 00:06:10 38° SE 00:10:49 10° ENE visible
11 Jul 2.2 01:43:57 10° WSW 01:48:58 64° NNW 01:54:00 10° NE visible
11 Jul 3.4 03:27:55 10° WNW 03:32:37 37° N 03:37:19 10° ENE visible
11 Jul 3.0 23:12:23 22° SE 23:13:02 23° SE 23:16:59 10° ENE visible
12 Jul 1.8 00:51:29 16° SW 00:55:30 90° NNE 01:00:35 10° ENE visible
12 Jul 3.1 02:34:08 10° W 02:38:55 41° NNW 02:43:43 10° ENE visible
12 Jul 3.6 22:19:37 13° SE 22:20:00 13° ESE 22:22:23 10° E visible
12 Jul 1.8 23:58:42 19° SSW 00:02:09 60° SE 00:07:09 10° ENE visible
13 Jul 2.8 01:40:22 10° W 01:45:17 49° NNW 01:50:12 10° NE visible
13 Jul 3.4 03:24:22 10° WNW 03:29:04 37° N 03:33:46 10° ENE visible
13 Jul 2.4 23:05:17 15° SSW 23:08:55 37° SE 23:13:34 10° ENE visible
14 Jul 2.2 00:46:41 10° WSW 00:51:43 65° NNW 00:56:46 10° NE visible
14 Jul 3.4 02:30:39 10° WNW 02:35:21 37° N 02:40:04 10° ENE visible
14 Jul 3.0 22:11:58 10° S 22:15:47 22° SE 22:19:42 10° ENE visible
14 Jul 1.8 23:53:11 10° SW 23:58:15 89° SSE 00:03:20 10° ENE visible
15 Jul 3.2 01:36:52 10° W 01:41:40 41° NNW 01:46:27 10° ENE visible
15 Jul 3.4 03:20:44 10° WNW 03:25:30 40° N 03:30:17 10° E visible
15 Jul 1.8 22:59:57 10° SW 23:04:54 59° SE 23:09:53 10° ENE visible
16 Jul 2.8 00:43:06 10° W 00:48:01 49° NNW 00:52:57 10° NE visible
16 Jul 3.5 02:27:06 10° WNW 02:31:48 37° N 02:36:30 10° ENE visible
16 Jul 2.6 04:10:27 10° NW 04:15:29 60° NNE 04:20:30 10° ESE visible
16 Jul 2.4 22:07:07 10° SSW 22:11:41 36° SE 22:16:18 10° ENE visible
16 Jul 2.2 23:49:25 10° WSW 23:54:27 66° NNW 23:59:30 10° NE visible
